Location: Innsbruck
(47.2657°N, 11.3914°E)
Time: 02:34:20
(UTC+02:00)

Envisat - Pass Details

Date: 12 February 2023
Orbit: 763 x 765 km, 98.2° (Epoch: 28 March)

Event Time Altitude Azimuth Distance (km) Brightness Sun altitude
Rises 06:05:02 0° 360° (N) 3,244 6.2 -14.0°
Reaches altitude 10° 06:08:11 10° 339° (NNW) 2,312 5.2 -13.5°
Maximum altitude 06:11:09 16° 303° (WNW) 1,928 4.5 -13.0°
Enters shadow 06:11:23 16° 300° (WNW) 1,930 4.5 -13.0°
